Location: T�bingen+AIT
(48.5342°N, 9.0700°E)
Time: 01:49:49
(UTC+02:00)

Cosmos 2298 Rocket - Pass Details

Date: 14 September 2017
Orbit: 775 x 784 km, 74.0° (Epoch: 23 September)

Event Time Altitude Azimuth Distance (km) Brightness Sun altitude
Rises 21:10:38 0° 337° (NNW) 3,284 8.0 -15.6°
Reaches altitude 10° 21:13:03 10° 340° (NNW) 2,352 7.2 -15.9°
Maximum altitude 21:18:24 76° 65° (ENE) 814 4.0 -16.7°
Enters shadow 21:21:43 24° 149° (SSE) 1,589 5.2 -17.2°
